Tracking 31027 objects as of 19-Jul-2025
HD Live streaming from Space Station
objects crossing your sky now

METEOR 2-8 DEB

Track METEOR 2-8 DEB now!
10-day predictions


NORAD ID: 36336
Int'l Code: 1982-025W
Perigee: 833.1 km
Apogee: 847.9 km
Inclination: 82.5 °
Period: 101.6 minutes
Semi major axis: 7211 km
RCS: 0.0095 m2 (small)
Launch date: March 25, 1982
Source: Commonwealth of Independent States (former USSR) (CIS)
Launch site: PLESETSK MISSILE AND SPACE COMPLEX (PKMTR)

Note: This is SATELLITE DEBRIS
Your satellite tracking list
DMSP 5D-2 F13 DEB
Track 1 satellite(s)




NASA's NSSDC Master Catalog

Two Line Element Set (TLE):
1 36336U 82025W   25198.64552017  .00000651  00000-0  31234-3 0  9991
2 36336  82.5376 174.9440 0010229  55.4517 304.7625 14.17629252218528
Source of the keplerian elements: AFSPC